Weather History for KWDG - March, 2014

Change the Weather History Date:

Monday, March 3, 2014

  Actual Average Record
Temperature  
Mean Temperature 11 °F -  
Max Temperature 21 °F 51 °F 73 °F (2011)
Min Temperature 1 °F 31 °F 1 °F (2014)
Degree Days  
Heating Degree Days 54    
Moisture  
Dew Point 1 °F    
Average Humidity 69    
Maximum Humidity 85    
Minimum Humidity 36    
Precipitation  
Precipitation 0.00 in - - ()
Sea Level Pressure  
Sea Level Pressure 30.45 in    
Wind  
Wind Speed 15 mph (North)    
Max Wind Speed 24 mph    
Max Gust Speed 30 mph    
Visibility 9 miles    
Events Snow    
Averages and records for this station are not official NWS values.
T = Trace of Precipitation, MM = Missing Value Source: NWS Daily Summary

Daily Weather History Graph

Daily Weather History Graph

Search for Another Location

Airport or City:

Trip Planner

Search our weather history database for the weather conditions in past years. The results will help you decide how hot, cold, wet, or windy it might be!

Date:

Astronomy

Mar. 03, 2014 Rise Set
Actual Time 6:58 AM CST 6:27 PM CST
Civil Twilight 6:33 AM CST 6:53 PM CST
Nautical Twilight 6:03 AM CST 7:23 PM CST
Astronomical Twilight 5:33 AM CST 7:53 PM CST
Moon 8:13 AM CST (3/3) 9:25 PM CST (3/3)
Length of Visible Light 12h 20m
Length of Day
11h 28m
Waxing Crescent, 8% of the Moon is Illuminated
Mar 3
Waxing Crescent
Mar 8
First Quarter
Mar 16
Full
Mar 23
Last Quarter
Mar 30
New

Hourly Weather History & Observations

Time (CST) Temp. Windchill Dew Point Humidity Pressure Visibility Wind Dir Wind Speed Gust Speed Precip Events Conditions
12:15 AM 8.6 °F -12.3 °F 5.0 °F 85% 30.46 in 2.5 mi North 24.2 mph 28.8 mph N/A Snow Light Snow
12:35 AM 8.6 °F -11.0 °F 3.2 °F 79% 30.48 in 2.5 mi North 20.7 mph 29.9 mph N/A Snow Light Snow
12:55 AM 8.6 °F -9.5 °F 3.2 °F 79% 30.49 in 5.0 mi North 17.3 mph 25.3 mph N/A Snow Light Snow
1:15 AM 8.6 °F -10.0 °F 3.2 °F 79% 30.49 in 4.0 mi North 18.4 mph 25.3 mph N/A Snow Light Snow
1:35 AM 8.6 °F -10.0 °F 3.2 °F 79% 30.49 in 5.0 mi North 18.4 mph 25.3 mph N/A   Overcast
1:55 AM 8.6 °F -10.0 °F 3.2 °F 79% 30.49 in 7.0 mi North 18.4 mph - N/A Snow Light Snow
2:15 AM 8.6 °F -11.0 °F 3.2 °F 79% 30.48 in 7.0 mi North 20.7 mph 24.2 mph N/A   Scattered Clouds
2:35 AM 8.6 °F -8.9 °F 3.2 °F 79% 30.48 in 10.0 mi North 16.1 mph - N/A   Scattered Clouds
2:55 AM 8.6 °F -7.7 °F 3.2 °F 79% 30.47 in 7.0 mi North 13.8 mph - N/A   Mostly Cloudy
3:15 AM 6.8 °F -10.0 °F 3.2 °F 85% 30.47 in 10.0 mi North 13.8 mph - N/A   Scattered Clouds
3:35 AM 6.8 °F -8.6 °F 3.2 °F 85% 30.47 in 10.0 mi North 11.5 mph - N/A   Clear
3:55 AM 5.0 °F -10.8 °F 1.4 °F 85% 30.47 in 10.0 mi North 11.5 mph - N/A   Clear
4:15 AM 5.0 °F -10.8 °F 1.4 °F 85% 30.47 in 10.0 mi North 11.5 mph - N/A   Clear
4:35 AM 5.0 °F -11.6 °F -0.4 °F 78% 30.45 in 10.0 mi North 12.7 mph - N/A   Clear
4:55 AM 5.0 °F -11.6 °F -0.4 °F 78% 30.45 in 10.0 mi North 12.7 mph - N/A   Clear
6:15 AM 3.2 °F -13.1 °F -4.0 °F 72% 30.49 in 10.0 mi NNW 11.5 mph - N/A   Clear
6:50 AM 3.2 °F -13.1 °F -4.0 °F 72% 30.49 in 10.0 mi NNW 11.5 mph - N/A   Clear
7:50 AM 1.4 °F -18.8 °F -2.2 °F 85% 30.50 in 10.0 mi NNW 17.3 mph - N/A   Clear
8:50 AM - - -2.2 °F N/A% 30.53 in 10.0 mi NNW 11.5 mph - N/A   Partly Cloudy
9:50 AM 5.0 °F -12.3 °F -0.4 °F 78% 30.54 in 10.0 mi NW 13.8 mph - N/A   Scattered Clouds
10:50 AM 14.0 °F 3.9 °F -0.4 °F 53% 30.53 in 10.0 mi North 6.9 mph - N/A   Scattered Clouds
11:55 AM 14.0 °F 0.5 °F -2.2 °F 49% 30.49 in 10.0 mi North 11.5 mph - N/A   Scattered Clouds
12:50 PM 14.0 °F 3.9 °F - N/A% 30.49 in 10.0 mi NNW 6.9 mph - N/A   Mostly Cloudy
1:50 PM 21.2 °F 12.6 °F 5.0 °F 50% 30.44 in 10.0 mi NNW 6.9 mph - N/A   Mostly Cloudy
2:55 PM 21.2 °F 10.9 °F 1.4 °F 42% 30.37 in 10.0 mi NNE 9.2 mph - N/A   Mostly Cloudy
3:50 PM 19.4 °F 7.2 °F -4.0 °F 36% 30.34 in 10.0 mi NNE 11.5 mph - N/A   Mostly Cloudy
4:50 PM 19.4 °F - -4.0 °F 36% 30.35 in 10.0 mi Calm Calm - N/A   Mostly Cloudy
5:50 PM 15.8 °F - -5.8 °F 38% 30.34 in 10.0 mi Calm Calm - N/A   Mostly Cloudy
6:50 PM 14.0 °F 5.1 °F -0.4 °F 53% 30.32 in 10.0 mi SE 5.8 mph - N/A   Mostly Cloudy
7:55 PM 14.0 °F 5.1 °F 1.4 °F 57% 30.29 in 10.0 mi South 5.8 mph - N/A   Mostly Cloudy
8:15 PM - - - N/A% - - North - - N/A   Unknown
8:35 PM - - - N/A% - - North - - N/A   Unknown
8:50 PM 12.2 °F 6.1 °F -0.4 °F 57% 30.30 in 10.0 mi SSW 3.5 mph - N/A   Mostly Cloudy
9:15 PM - - - N/A% - - North - - N/A   Unknown
9:35 PM - - - N/A% - - North - - N/A   Unknown
9:55 PM - - - N/A% - - North - - N/A   Unknown
10:15 PM - - - N/A% - - North - - N/A   Unknown
10:35 PM - - - N/A% - - North - - N/A   Unknown
10:55 PM - - - N/A% - - North - - N/A   Unknown
11:15 PM - - - N/A% - - North - - N/A   Unknown
11:35 PM - - - N/A% - - North - - N/A   Unknown
11:55 PM - - - N/A% - - North - - N/A   Unknown